When you browse on this site, cookies collect data to enhance your experience and personalize the content and advertising you see.
Visit our Privacy Policy to learn more. By continuing to use the site, you agree to this use of cookies and data.
  • In Österreich
  • Länderverzeichnis
  • Für 7 Tage
  • Wassertemperatur
  • Wetterkarte
  • News
  • Widgets
  • user-avatar
    Anmelden

    Stündliche Wetter Jacala

    Heute, 22 August, Donnerstag

    Zeit Temperatur Niederschläge Wind Luftdruck Luftfeuchtigkeit
    00:00 +16°C° 0 mm 1 m/S 632 mmHg 94%
    01:00 +16°C° 0 mm 1 m/S 632 mmHg 93%
    02:00 +16°C° 0 mm 1 m/S 631 mmHg 93%
    03:00 +16°C° 0 mm 1 m/S 631 mmHg 92%
    04:00 +16°C° 0 mm 1 m/S 631 mmHg 91%
    05:00 +15°C° 0 mm 1 m/S 631 mmHg 91%
    06:00 +19°C° 0 mm 1 m/S 632 mmHg 83%
    07:00 +19°C° 0 mm 0 m/S 633 mmHg 75%
    08:00 +21°C° 0 mm 0 m/S 634 mmHg 67%
    09:00 +25°C° 0 mm 1 m/S 634 mmHg 60%
    10:00 +27°C° 0 mm 1 m/S 634 mmHg 54%
    11:00 +28°C° 0 mm 2 m/S 634 mmHg 47%
    12:00 +28°C° 0.1 mm 2 m/S 634 mmHg 49%
    13:00 +28°C° 0.1 mm 2 m/S 633 mmHg 50%
    14:00 +28°C° 0.1 mm 3 m/S 633 mmHg 51%
    15:00 +27°C° 0.5 mm 3 m/S 632 mmHg 59%
    16:00 +25°C° 0.5 mm 2 m/S 632 mmHg 67%
    17:00 +24°C° 0.5 mm 2 m/S 631 mmHg 75%
    18:00 +22°C° 0.3 mm 1 m/S 631 mmHg 80%
    19:00 +21°C° 0.3 mm 1 m/S 631 mmHg 85%
    20:00 +19°C° 0.3 mm 1 m/S 632 mmHg 91%
    21:00 +19°C° 0 mm 1 m/S 632 mmHg 91%
    22:00 +17°C° 0 mm 0 m/S 632 mmHg 91%
    23:00 +16°C° 0 mm 0 m/S 631 mmHg 92%

    Morgen, 23 August, Freitag

    Zeit Temperatur Niederschläge Wind Luftdruck Luftfeuchtigkeit
    00:00 +16°C° 0 mm 0 m/S 631 mmHg 91%
    01:00 +16°C° 0 mm 0 m/S 631 mmHg 91%
    02:00 +16°C° 0 mm 0 m/S 631 mmHg 90%
    03:00 +16°C° 0 mm 0 m/S 631 mmHg 90%
    04:00 +18°C° 0 mm 1 m/S 631 mmHg 89%
    05:00 +18°C° 0 mm 1 m/S 631 mmHg 89%
    06:00 +20°C° 0 mm 1 m/S 632 mmHg 82%
    07:00 +20°C° 0 mm 0 m/S 633 mmHg 75%
    08:00 +22°C° 0 mm 0 m/S 634 mmHg 68%
    09:00 +26°C° 0 mm 1 m/S 634 mmHg 61%
    10:00 +27°C° 0 mm 1 m/S 634 mmHg 55%
    11:00 +29°C° 0 mm 2 m/S 634 mmHg 48%
    12:00 +29°C° 0.3 mm 2 m/S 634 mmHg 50%
    13:00 +29°C° 0.3 mm 2 m/S 633 mmHg 51%
    14:00 +28°C° 0.3 mm 3 m/S 633 mmHg 53%
    15:00 +27°C° 1.4 mm 2 m/S 632 mmHg 63%
    16:00 +25°C° 1.4 mm 2 m/S 631 mmHg 73%
    17:00 +23°C° 1.4 mm 2 m/S 631 mmHg 82%
    18:00 +22°C° 0.7 mm 1 m/S 631 mmHg 85%
    19:00 +21°C° 0.7 mm 1 m/S 631 mmHg 88%
    20:00 +20°C° 0.7 mm 1 m/S 632 mmHg 91%
    21:00 +20°C° 0.1 mm 1 m/S 632 mmHg 90%
    22:00 +19°C° 0.1 mm 1 m/S 632 mmHg 89%
    23:00 +19°C° 0.1 mm 1 m/S 632 mmHg 89%

    übermorgen, 24 August, Samstag

    Zeit Temperatur Niederschläge Wind Luftdruck Luftfeuchtigkeit
    00:00 +19°C° 0 mm 1 m/S 632 mmHg 89%
    01:00 +18°C° 0 mm 1 m/S 631 mmHg 88%
    02:00 +18°C° 0 mm 1 m/S 631 mmHg 88%
    03:00 +18°C° 0 mm 1 m/S 631 mmHg 87%
    04:00 +18°C° 0 mm 1 m/S 631 mmHg 87%
    05:00 +16°C° 0 mm 1 m/S 631 mmHg 86%
    06:00 +20°C° 0 mm 1 m/S 632 mmHg 79%
    07:00 +20°C° 0 mm 0 m/S 633 mmHg 72%
    08:00 +22°C° 0 mm 0 m/S 634 mmHg 65%
    09:00 +26°C° 0.1 mm 1 m/S 634 mmHg 58%
    10:00 +28°C° 0.1 mm 1 m/S 635 mmHg 51%
    11:00 +30°C° 0.1 mm 1 m/S 635 mmHg 44%
    12:00 +29°C° 0.2 mm 2 m/S 634 mmHg 46%
    13:00 +29°C° 0.2 mm 2 m/S 634 mmHg 48%
    14:00 +29°C° 0.2 mm 2 m/S 633 mmHg 50%
    15:00 +28°C° 1.1 mm 2 m/S 632 mmHg 60%
    16:00 +26°C° 1.1 mm 2 m/S 632 mmHg 70%
    17:00 +24°C° 1.1 mm 2 m/S 631 mmHg 80%
    18:00 +23°C° 1.1 mm 1 m/S 631 mmHg 83%
    19:00 +22°C° 1.1 mm 1 m/S 632 mmHg 87%
    20:00 +21°C° 1.1 mm 1 m/S 632 mmHg 91%
    21:00 +21°C° 0.3 mm 1 m/S 632 mmHg 90%
    22:00 +19°C° 0.3 mm 0 m/S 632 mmHg 89%
    23:00 +18°C° 0.3 mm 0 m/S 632 mmHg 88%

    25 August, Sonntag

    Zeit Temperatur Niederschläge Wind Luftdruck Luftfeuchtigkeit
    00:00 +18°C° 0.1 mm 0 m/S 632 mmHg 89%
    01:00 +18°C° 0.1 mm 0 m/S 631 mmHg 90%
    02:00 +18°C° 0.1 mm 0 m/S 631 mmHg 90%
    03:00 +17°C° 0.1 mm 0 m/S 631 mmHg 90%
    04:00 +17°C° 0.1 mm 0 m/S 631 mmHg 90%
    05:00 +17°C° 0.1 mm 0 m/S 631 mmHg 90%
    06:00 +19°C° 0 mm 0 m/S 632 mmHg 84%
    07:00 +20°C° 0 mm 0 m/S 632 mmHg 79%
    08:00 +22°C° 0 mm 0 m/S 633 mmHg 73%
    09:00 +26°C° 0 mm 1 m/S 633 mmHg 66%
    10:00 +28°C° 0 mm 1 m/S 634 mmHg 58%
    11:00 +29°C° 0 mm 1 m/S 634 mmHg 51%
    12:00 +29°C° 0.5 mm 2 m/S 633 mmHg 54%
    13:00 +29°C° 0.5 mm 2 m/S 632 mmHg 58%
    14:00 +28°C° 0.5 mm 3 m/S 631 mmHg 61%
    15:00 +27°C° 1.2 mm 2 m/S 631 mmHg 69%
    16:00 +25°C° 1.2 mm 2 m/S 631 mmHg 78%
    17:00 +24°C° 1.2 mm 2 m/S 630 mmHg 86%
    18:00 +23°C° 1.8 mm 1 m/S 630 mmHg 89%
    19:00 +22°C° 1.8 mm 1 m/S 631 mmHg 93%
    20:00 +21°C° 1.8 mm 1 m/S 631 mmHg 96%
    21:00 +21°C° 1.3 mm 1 m/S 631 mmHg 95%
    22:00 +20°C° 1.3 mm 1 m/S 631 mmHg 93%
    23:00 +20°C° 1.3 mm 1 m/S 631 mmHg 92%

    26 August, Montag

    Zeit Temperatur Niederschläge Wind Luftdruck Luftfeuchtigkeit
    00:00 +20°C° 0.6 mm 1 m/S 631 mmHg 92%
    01:00 +20°C° 0.6 mm 1 m/S 630 mmHg 92%
    02:00 +19°C° 0.6 mm 1 m/S 630 mmHg 92%
    03:00 +19°C° 0.1 mm 1 m/S 630 mmHg 91%
    04:00 +19°C° 0.1 mm 1 m/S 630 mmHg 90%
    05:00 +17°C° 0.1 mm 0 m/S 630 mmHg 89%
    06:00 +19°C° 0 mm 0 m/S 631 mmHg 83%
    07:00 +20°C° 0 mm 0 m/S 631 mmHg 77%
    08:00 +22°C° 0 mm 0 m/S 632 mmHg 72%
    09:00 +25°C° 0.2 mm 1 m/S 632 mmHg 66%
    10:00 +26°C° 0.2 mm 1 m/S 632 mmHg 61%
    11:00 +28°C° 0.2 mm 2 m/S 633 mmHg 56%
    12:00 +27°C° 0.7 mm 2 m/S 632 mmHg 60%
    13:00 +27°C° 0.7 mm 2 m/S 631 mmHg 64%
    14:00 +26°C° 0.7 mm 2 m/S 630 mmHg 69%
    15:00 +25°C° 1.6 mm 2 m/S 630 mmHg 76%
    16:00 +24°C° 1.6 mm 2 m/S 630 mmHg 84%
    17:00 +21°C° 1.6 mm 2 m/S 629 mmHg 91%
    18:00 +21°C° 2.7 mm 1 m/S 630 mmHg 92%
    19:00 +21°C° 2.7 mm 1 m/S 630 mmHg 93%
    20:00 +20°C° 2.7 mm 1 m/S 631 mmHg 94%
    21:00 +20°C° 4.9 mm 1 m/S 631 mmHg 95%
    22:00 +19°C° 4.9 mm 1 m/S 631 mmHg 95%
    23:00 +19°C° 4.9 mm 1 m/S 631 mmHg 96%

    27 August, Dienstag

    Zeit Temperatur Niederschläge Wind Luftdruck Luftfeuchtigkeit
    00:00 +18°C° 0.1 mm 1 m/S 631 mmHg 95%
    01:00 +18°C° 0.1 mm 1 m/S 630 mmHg 94%
    02:00 +18°C° 0.1 mm 1 m/S 630 mmHg 94%
    03:00 +16°C° 0 mm 0 m/S 630 mmHg 93%
    04:00 +16°C° 0 mm 0 m/S 630 mmHg 92%
    05:00 +16°C° 0 mm 0 m/S 630 mmHg 91%
    06:00 +17°C° 0 mm 0 m/S 631 mmHg 87%
    07:00 +19°C° 0 mm 0 m/S 632 mmHg 82%
    08:00 +20°C° 0 mm 0 m/S 632 mmHg 77%
    09:00 +24°C° 0 mm 1 m/S 633 mmHg 70%
    10:00 +25°C° 0 mm 1 m/S 633 mmHg 63%
    11:00 +27°C° 0 mm 2 m/S 633 mmHg 56%
    12:00 +27°C° 0.3 mm 2 m/S 632 mmHg 58%
    13:00 +27°C° 0.3 mm 2 m/S 632 mmHg 60%
    14:00 +26°C° 0.3 mm 3 m/S 631 mmHg 63%
    15:00 +25°C° 0.4 mm 2 m/S 631 mmHg 70%
    16:00 +24°C° 0.4 mm 2 m/S 631 mmHg 78%
    17:00 +21°C° 0.4 mm 2 m/S 630 mmHg 85%
    18:00 +21°C° 0.4 mm 1 m/S 631 mmHg 89%
    19:00 +20°C° 0.4 mm 1 m/S 631 mmHg 92%
    20:00 +17°C° 0.4 mm 0 m/S 631 mmHg 96%
    21:00 +19°C° 2.3 mm 1 m/S 632 mmHg 94%
    22:00 +19°C° 2.3 mm 1 m/S 632 mmHg 93%
    23:00 +19°C° 2.3 mm 1 m/S 632 mmHg 92%
    Mehr zeigen